Time,TemperatureF,DewpointF,PressureIn,WindDirection,WindDirectionDegrees,WindSpeedMPH,WindSpeedGustMPH,Humidity,HourlyPrecipIn,Conditions,Clouds,dailyrainin,SoftwareType,DateUTC
2013-07-31 00:00:00,79.9,61.0,29.97,ENE,65,3.0,6.0,52,0.00,,,0.00,weatherlink.com 1.10,2013-07-30 22:00:00,
2013-07-31 00:15:00,79.8,61.0,29.97,ENE,63,2.0,4.0,52,0.00,,,0.00,weatherlink.com 1.10,2013-07-30 22:15:00,
2013-07-31 00:30:00,79.3,61.0,29.96,ENE,65,3.0,3.0,53,0.00,,,0.00,weatherlink.com 1.10,2013-07-30 22:30:00,
2013-07-31 00:45:00,79.1,60.0,29.96,ENE,64,2.0,4.0,53,0.00,,,0.00,weatherlink.com 1.10,2013-07-30 22:45:00,
2013-07-31 01:00:00,78.8,60.0,29.96,ENE,77,3.0,5.0,53,0.00,,,0.00,weatherlink.com 1.10,2013-07-30 23:00:00,
2013-07-31 01:15:00,78.4,60.0,29.95,NE,48,2.0,3.0,54,0.00,,,0.00,weatherlink.com 1.10,2013-07-30 23:15:00,
2013-07-31 01:30:00,78.1,60.0,29.95,ENE,64,1.0,4.0,54,0.00,,,0.00,weatherlink.com 1.10,2013-07-30 23:30:00,
2013-07-31 01:45:00,77.5,59.0,29.95,ENE,64,1.0,2.0,54,0.00,,,0.00,weatherlink.com 1.10,2013-07-30 23:45:00,
2013-07-31 02:00:00,77.0,60.0,29.95,ENE,64,1.0,4.0,55,0.00,,,0.00,weatherlink.com 1.10,2013-07-31 00:00:00,
2013-07-31 02:15:00,76.6,59.0,29.95,ENE,75,3.0,4.0,54,0.00,,,0.00,weatherlink.com 1.10,2013-07-31 00:15:00,
2013-07-31 02:30:00,76.3,59.0,29.94,NE,45,1.0,4.0,55,0.00,,,0.00,weatherlink.com 1.10,2013-07-31 00:30:00,
2013-07-31 02:45:00,75.6,59.0,29.94,ENE,64,1.0,1.0,56,0.00,,,0.00,weatherlink.com 1.10,2013-07-31 00:45:00,
2013-07-31 03:00:00,75.3,59.0,29.94,ENE,64,1.0,1.0,57,0.00,,,0.00,weatherlink.com 1.10,2013-07-31 01:00:00,
2013-07-31 03:15:00,74.8,59.0,29.94,ENE,60,1.0,1.0,58,0.00,,,0.00,weatherlink.com 1.10,2013-07-31 01:15:00,
2013-07-31 03:30:00,74.5,59.0,29.93,NE,55,1.0,3.0,59,0.00,,,0.00,weatherlink.com 1.10,2013-07-31 01:30:00,
2013-07-31 03:45:00,74.4,59.0,29.93,ENE,63,1.0,4.0,59,0.00,,,0.00,weatherlink.com 1.10,2013-07-31 01:45:00,
2013-07-31 04:00:00,74.0,59.0,29.93,ENE,74,0.0,2.0,60,0.00,,,0.00,weatherlink.com 1.10,2013-07-31 02:00:00,
2013-07-31 04:15:00,74.1,59.0,29.94,ENE,74,3.0,4.0,60,0.00,,,0.00,weatherlink.com 1.10,2013-07-31 02:15:00,
2013-07-31 04:30:00,74.1,59.0,29.94,ENE,65,3.0,4.0,60,0.00,,,0.00,weatherlink.com 1.10,2013-07-31 02:30:00,
2013-07-31 04:46:00,73.8,59.0,29.94,ENE,65,2.0,5.0,60,0.00,,,0.00,weatherlink.com 1.10,2013-07-31 02:46:00,
2013-07-31 05:01:00,73.5,59.0,29.94,East,81,3.0,4.0,60,0.00,,,0.00,weatherlink.com 1.10,2013-07-31 03:01:00,
2013-07-31 05:16:00,73.7,59.0,29.94,East,79,3.0,4.0,60,0.00,,,0.00,weatherlink.com 1.10,2013-07-31 03:16:00,
2013-07-31 05:31:00,73.4,59.0,29.94,ENE,60,2.0,3.0,61,0.00,,,0.00,weatherlink.com 1.10,2013-07-31 03:31:00,
2013-07-31 05:46:00,73.4,59.0,29.94,ENE,63,2.0,4.0,60,0.00,,,0.00,weatherlink.com 1.10,2013-07-31 03:46:00,
2013-07-31 06:01:00,73.5,59.0,29.95,ENE,64,1.0,3.0,60,0.00,,,0.00,weatherlink.com 1.10,2013-07-31 04:01:00,
2013-07-31 06:16:00,73.7,58.0,29.95,NE,56,1.0,3.0,59,0.00,,,0.00,weatherlink.com 1.10,2013-07-31 04:16:00,
2013-07-31 06:31:00,73.8,58.0,29.95,ENE,67,2.0,3.0,59,0.00,,,0.00,weatherlink.com 1.10,2013-07-31 04:31:00,
2013-07-31 06:46:00,74.0,58.0,29.96,ENE,67,3.0,4.0,58,0.00,,,0.00,weatherlink.com 1.10,2013-07-31 04:46:00,
2013-07-31 07:01:00,74.4,58.0,29.96,NE,56,3.0,4.0,57,0.00,,,0.00,weatherlink.com 1.10,2013-07-31 05:01:00,
2013-07-31 07:16:00,74.7,58.0,29.96,ENE,65,0.0,2.0,57,0.00,,,0.00,weatherlink.com 1.10,2013-07-31 05:16:00,
2013-07-31 07:31:00,75.0,59.0,29.96,ENE,60,0.0,2.0,58,0.00,,,0.00,weatherlink.com 1.10,2013-07-31 05:31:00,
2013-07-31 07:46:00,75.3,59.0,29.96,NE,34,0.0,2.0,58,0.00,,,0.00,weatherlink.com 1.10,2013-07-31 05:46:00,
2013-07-31 08:01:00,75.8,59.0,29.96,NE,46,1.0,2.0,56,0.00,,,0.00,weatherlink.com 1.10,2013-07-31 06:01:00,
2013-07-31 08:16:00,76.5,60.0,29.96,ENE,67,0.0,3.0,56,0.00,,,0.00,weatherlink.com 1.10,2013-07-31 06:16:00,
2013-07-31 08:31:00,77.3,60.0,29.97,ENE,67,2.0,3.0,55,0.00,,,0.00,weatherlink.com 1.10,2013-07-31 06:31:00,
2013-07-31 08:46:00,78.0,60.0,29.97,ENE,68,2.0,3.0,54,0.00,,,0.00,weatherlink.com 1.10,2013-07-31 06:46:00,
2013-07-31 09:01:00,78.7,60.0,29.97,ENE,71,3.0,4.0,53,0.00,,,0.00,weatherlink.com 1.10,2013-07-31 07:01:00,
2013-07-31 09:16:00,79.3,60.0,29.97,NE,56,1.0,5.0,51,0.00,,,0.00,weatherlink.com 1.10,2013-07-31 07:16:00,
2013-07-31 09:31:00,80.1,60.0,29.97,ENE,74,3.0,4.0,50,0.00,,,0.00,weatherlink.com 1.10,2013-07-31 07:31:00,
2013-07-31 09:46:00,80.7,60.0,29.97,NE,37,1.0,5.0,49,0.00,,,0.00,weatherlink.com 1.10,2013-07-31 07:46:00,
2013-07-31 10:16:00,81.6,60.0,29.98,ENE,74,1.0,4.0,48,0.00,,,0.00,weatherlink.com 1.10,2013-07-31 08:16:00,
2013-07-31 10:46:00,82.7,60.0,29.97,ENE,68,1.0,3.0,46,0.00,,,0.00,weatherlink.com 1.10,2013-07-31 08:46:00,
2013-07-31 11:01:00,83.4,59.0,29.98,ENE,63,2.0,6.0,43,0.00,,,0.00,weatherlink.com 1.10,2013-07-31 09:01:00,
2013-07-31 11:16:00,83.7,60.0,29.98,ENE,64,1.0,3.0,44,0.00,,,0.00,weatherlink.com 1.10,2013-07-31 09:16:00,
2013-07-31 11:46:00,85.0,57.0,29.97,NE,41,1.0,5.0,39,0.00,,,0.00,weatherlink.com 1.10,2013-07-31 09:46:00,
2013-07-31 12:01:00,85.6,58.0,29.97,ENE,63,6.0,7.0,39,0.00,,,0.00,weatherlink.com 1.10,2013-07-31 10:01:00,
2013-07-31 12:16:00,85.8,57.0,29.97,NE,39,1.0,4.0,38,0.00,,,0.00,weatherlink.com 1.10,2013-07-31 10:16:00,
2013-07-31 12:31:00,86.4,58.0,29.96,ENE,68,3.0,3.0,38,0.00,,,0.00,weatherlink.com 1.10,2013-07-31 10:31:00,
2013-07-31 12:46:00,86.5,57.0,29.96,ENE,70,2.0,5.0,37,0.00,,,0.00,weatherlink.com 1.10,2013-07-31 10:46:00,
2013-07-31 13:01:00,87.4,57.0,29.96,SSW,204,0.0,4.0,35,0.00,,,0.00,weatherlink.com 1.10,2013-07-31 11:01:00,
2013-07-31 13:16:00,87.7,59.0,29.95,South,181,0.0,3.0,38,0.00,,,0.00,weatherlink.com 1.10,2013-07-31 11:16:00,
2013-07-31 13:31:00,88.4,57.0,29.95,ENE,71,2.0,3.0,34,0.00,,,0.00,weatherlink.com 1.10,2013-07-31 11:31:00,
2013-07-31 13:46:00,88.5,56.0,29.95,ENE,64,1.0,2.0,33,0.00,,,0.00,weatherlink.com 1.10,2013-07-31 11:46:00,
2013-07-31 14:02:00,90.0,58.0,29.94,SSE,165,0.0,1.0,34,0.00,,,0.00,weatherlink.com 1.10,2013-07-31 12:02:00,
2013-07-31 14:17:00,90.1,56.0,29.94,ENE,58,2.0,4.0,32,0.00,,,0.00,weatherlink.com 1.10,2013-07-31 12:17:00,
2013-07-31 14:32:00,90.2,61.0,29.94,ENE,78,2.0,4.0,38,0.00,,,0.00,weatherlink.com 1.10,2013-07-31 12:32:00,
2013-07-31 14:47:00,90.0,63.0,29.93,ENE,78,0.0,2.0,40,0.00,,,0.00,weatherlink.com 1.10,2013-07-31 12:47:00,
2013-07-31 15:02:00,89.6,64.0,29.93,ENE,57,0.0,5.0,42,0.00,,,0.00,weatherlink.com 1.10,2013-07-31 13:02:00,
2013-07-31 15:17:00,89.1,64.0,29.93,NE,45,2.0,4.0,43,0.00,,,0.00,weatherlink.com 1.10,2013-07-31 13:17:00,
2013-07-31 15:32:00,88.2,63.0,29.93,ESE,110,0.0,4.0,43,0.00,,,0.00,weatherlink.com 1.10,2013-07-31 13:32:00,
2013-07-31 15:47:00,88.1,64.0,29.93,NNE,32,0.0,4.0,44,0.00,,,0.00,weatherlink.com 1.10,2013-07-31 13:47:00,
2013-07-31 16:02:00,88.0,63.0,29.93,NE,50,3.0,6.0,43,0.00,,,0.00,weatherlink.com 1.10,2013-07-31 14:02:00,
2013-07-31 16:17:00,87.9,64.0,29.93,ENE,78,1.0,2.0,45,0.00,,,0.00,weatherlink.com 1.10,2013-07-31 14:17:00,
2013-07-31 16:32:00,87.5,65.0,29.93,South,174,0.0,5.0,47,0.00,,,0.00,weatherlink.com 1.10,2013-07-31 14:32:00,
2013-07-31 16:47:00,87.2,65.0,29.93,ESE,122,0.0,4.0,47,0.00,,,0.00,weatherlink.com 1.10,2013-07-31 14:47:00,
2013-07-31 17:02:00,86.9,64.0,29.93,NNW,342,3.0,5.0,47,0.00,,,0.00,weatherlink.com 1.10,2013-07-31 15:02:00,
2013-07-31 17:17:00,86.5,65.0,29.93,ENE,70,1.0,6.0,49,0.00,,,0.00,weatherlink.com 1.10,2013-07-31 15:17:00,
2013-07-31 17:32:00,86.2,65.0,29.93,South,180,0.0,5.0,50,0.00,,,0.00,weatherlink.com 1.10,2013-07-31 15:32:00,
2013-07-31 17:47:00,85.8,66.0,29.93,ENE,63,1.0,3.0,51,0.00,,,0.00,weatherlink.com 1.10,2013-07-31 15:47:00,
2013-07-31 18:02:00,85.5,67.0,29.93,NNE,27,2.0,4.0,54,0.00,,,0.00,weatherlink.com 1.10,2013-07-31 16:02:00,
2013-07-31 18:17:00,84.9,66.0,29.93,South,181,0.0,3.0,53,0.00,,,0.00,weatherlink.com 1.10,2013-07-31 16:17:00,
2013-07-31 18:32:00,84.8,67.0,29.93,ESE,110,1.0,2.0,55,0.00,,,0.00,weatherlink.com 1.10,2013-07-31 16:32:00,
2013-07-31 18:47:00,84.3,68.0,29.92,ENE,65,1.0,5.0,59,0.00,,,0.00,weatherlink.com 1.10,2013-07-31 16:47:00,
2013-07-31 19:02:00,83.9,68.0,29.92,SSW,203,1.0,3.0,60,0.00,,,0.00,weatherlink.com 1.10,2013-07-31 17:02:00,
2013-07-31 19:17:00,83.4,67.0,29.92,SSW,208,0.0,2.0,59,0.00,,,0.00,weatherlink.com 1.10,2013-07-31 17:17:00,
2013-07-31 19:32:00,82.7,68.0,29.92,ENE,64,0.0,2.0,62,0.00,,,0.00,weatherlink.com 1.10,2013-07-31 17:32:00,
2013-07-31 19:47:00,82.3,68.0,29.92,SW,215,0.0,2.0,63,0.00,,,0.00,weatherlink.com 1.10,2013-07-31 17:47:00,
2013-07-31 20:02:00,81.9,69.0,29.92,East,83,0.0,1.0,64,0.00,,,0.00,weatherlink.com 1.10,2013-07-31 18:02:00,
2013-07-31 20:32:00,81.1,68.0,29.92,South,174,0.0,0.0,64,0.00,,,0.00,weatherlink.com 1.10,2013-07-31 18:32:00,
2013-07-31 20:47:00,80.6,68.0,29.92,South,176,0.0,0.0,66,0.00,,,0.00,weatherlink.com 1.10,2013-07-31 18:47:00,
2013-07-31 21:17:00,79.6,68.0,29.93,South,182,0.0,0.0,67,0.00,,,0.00,weatherlink.com 1.10,2013-07-31 19:17:00,
2013-07-31 21:47:00,78.6,68.0,29.94,South,180,0.0,0.0,70,0.00,,,0.00,weatherlink.com 1.10,2013-07-31 19:47:00,
2013-07-31 22:02:00,77.8,68.0,29.94,South,180,0.0,0.0,71,0.00,,,0.00,weatherlink.com 1.10,2013-07-31 20:02:00,
2013-07-31 22:32:00,76.5,68.0,29.95,South,180,0.0,0.0,76,0.00,,,0.00,weatherlink.com 1.10,2013-07-31 20:32:00,
2013-07-31 22:47:00,76.9,68.0,29.95,ENE,60,0.0,1.0,75,0.00,,,0.00,weatherlink.com 1.10,2013-07-31 20:47:00,
2013-07-31 23:02:00,77.6,68.0,29.95,SE,129,0.0,0.0,72,0.00,,,0.00,weatherlink.com 1.10,2013-07-31 21:02:00,
2013-07-31 23:17:00,77.3,68.0,29.95,ENE,60,0.0,0.0,72,0.00,,,0.00,weatherlink.com 1.10,2013-07-31 21:17:00,
2013-07-31 23:32:00,77.8,67.0,29.95,ENE,70,0.0,1.0,70,0.00,,,0.00,weatherlink.com 1.10,2013-07-31 21:32:00,
2013-07-31 23:47:00,77.9,67.0,29.96,ENE,74,3.0,3.0,69,0.00,,,0.00,weatherlink.com 1.10,2013-07-31 21:47:00,